[Show "Revision History"] [Show "General Page Infos"] [Show "Page hits and edits"]

Revision History

Showing page edit history entries from 18 to 117 out of 167 entries total. (5 | 10 | 25 | 50 | 100 | 200 items per page)

# Date Size Editor Comment Action
117 2006-04-06 11:53:54 7262 to previous CalebPhillips   view
116 2006-04-06 11:52:13 7258 to previous CalebPhillips simplified codification view
115 2006-04-06 11:43:31 6971 to previous CalebPhillips added NodeLighthouse. NodeMashTun -> Functional since it isnt NOT managed view
114 2006-04-04 19:45:54 6919 to previous CalebPhillips touch NodeLuckyLab. they havn't unplugged it yet! view
113 2006-04-03 14:06:47 6919 to previous CalebPhillips added NodeVeganopolis view
112 2006-04-01 19:38:07 6809 to previous CalebPhillips DonPark fixed NodeRoseAndRaindrop view
111 2006-03-30 20:21:33 6897 to previous RussellSenior note RoseAndRaindrop downage view
110 2006-03-27 19:53:06 6810 to previous CalebPhillips NodePowellsTech -> OK view
109 2006-03-22 21:04:48 6820 to previous CalebPhillips touch NodeLuckyLab view
108 2006-03-17 10:20:47 6820 to previous TomHiggins   view
107 2006-03-12 20:39:39 6820 to previous TomHiggins   view
106 2006-03-07 22:45:13 6820 to previous RussellSenior Added NodeIrvingPark, noting its OKness view
105 2006-03-07 10:38:56 6777 to previous CalebPhillips touch NodePioneerSquare view
104 2006-03-01 21:49:34 6777 to previous CalebPhillips touch NodeLuckyLab, NodeBackspace view
103 2006-02-28 01:16:50 6777 to previous CalebPhillips NodeFirstUnitarian -> OK view
102 2006-02-16 11:45:34 6778 to previous CalebPhillips touch NodeCostellos view
101 2006-02-14 18:48:06 6778 to previous CalebPhillips added NodeRodneyAndSkidmore view
100 2006-02-07 22:35:18 6777 to previous RussellSenior touch NodeFreshPot and NodeCostellos view
99 2006-02-06 20:27:09 6659 to previous CalebPhillips touch NodeStumptownAsh view
98 2006-02-02 15:42:18 6659 to previous CalebPhillips NodePioneerSquare working now. view
97 2006-02-02 00:57:05 6786 to previous CalebPhillips added NodeFirstUnitarian - cp view
96 2006-02-01 01:47:09 6738 to previous CalebPhillips added note about downage view
95 2006-02-01 01:45:30 6626 to previous CalebPhillips NodePioneerSquare -> Inaccessible/Down view
94 2006-01-30 17:14:23 6611 to previous RussellSenior reconfigured wrt54g to ptp config view
93 2006-01-29 09:31:20 6611 to previous CalebPhillips touch NodeStumptownAsh view
92 2006-01-28 17:59:03 6611 to previous CalebPhillips Added NodeMashTun view
91 2006-01-24 15:23:48 6573 to previous RussellSenior NodeStumptownBelmont back online view
90 2006-01-24 15:18:59 6662 to previous CalebPhillips   view
89 2006-01-24 15:18:05 6576 to previous CalebPhillips   view
88 2006-01-24 15:08:54 6702 to previous CalebPhillips added NodeStumptownBelmont view
87 2006-01-24 01:01:34 6651 to previous RussellSenior added info from stumptown belmont visit today view
86 2006-01-14 13:00:39 6522 to previous CalebPhillips added NodeKlickitat view
85 2006-01-14 12:26:15 6472 to previous CalebPhillips touch NodeUrbanGrind, NodeOakTree -> OK view
84 2006-01-11 12:28:12 6473 to previous CalebPhillips touch NodeMississippi view
83 2006-01-11 12:20:26 6473 to previous CalebPhillips touch NodeFreshPot view
82 2006-01-09 23:20:41 6473 to previous CalebPhillips added NodeRoseAndRaindrop view
81 2006-01-07 11:02:37 6426 to previous CalebPhillips touch NodeUrbanGrind view
80 2006-01-03 18:27:14 6426 to previous CalebPhillips touch NodeLuckyLab view
79 2006-01-03 05:07:43 6426 to previous beast checked vivace, remotely (-kq) view
78 2006-01-03 04:37:23 6426 to previous beast checked OTP, remotely (-kq) view
77 2006-01-03 04:19:07 6426 to previous beast oops again (-kq) view
76 2006-01-03 04:18:13 6431 to previous beast oops (-kq) view
75 2006-01-03 04:17:18 6377 to previous beast updates + additions (-kq) view
74 2005-12-13 18:58:35 6375 to previous CalebPhillips touch NodeLuckyLab view
73 2005-12-10 18:09:03 6376 to previous 69 touch NodeBuffaloGap and NodeUrbanGrind - CalebPhillips view
72 2005-11-23 08:47:54 6376 to previous w7p bump, added SunLotus -Rp view
71 2005-11-22 18:40:51 6257 to previous 66-182-19-132 touch NodeOldTownPizza - cp view
70 2005-11-22 18:39:58 6257 to previous 66-182-19-132 NodePowellsBooks Inaccessible -> OK - cp view
69 2005-11-22 17:14:38 6267 to previous 67 Touch NodePowellsBooks - cp view
68 2005-11-18 21:48:56 6267 to previous sub27-11   view
67 2005-11-14 18:33:05 6290 to previous mail touch NodeOldTownPizza, add line for NodeLuckyLab - cp view
66 2005-11-11 15:57:35 6238 to previous 72 touch NodeCrowBar - cp view
65 2005-11-08 21:28:47 6238 to previous 66-182-19-132 touch NodeOldTownPizza - cp view
64 2005-11-05 17:39:05 6238 to previous sub27-11   view
63 2005-10-28 17:24:19 6238 to previous 71-32-255-35 touch NodeCostellos - cp view
62 2005-10-28 11:44:23 6238 to previous 64 touch NodeUrbanGrind - cp view
61 2005-10-27 14:05:30 6238 to previous 67   view
60 2005-10-27 09:57:07 6240 to previous host-226-204 added NodeSunLotus - cp view
59 2005-10-26 17:58:19 6195 to previous 64 touch NodeUrbanGrind - cp view
58 2005-10-26 16:24:52 6195 to previous 71-32-255-35 touch NodeCostellos - cp view
57 2005-10-21 14:49:28 6195 to previous 67 touch NodeFreshPot - cp view
56 2005-10-21 12:23:58 6195 to previous 64 touch NodeUrbanGrind - cp view
55 2005-10-14 13:23:11 6195 to previous sub27-11 added status "Down" - cp view
54 2005-10-13 21:30:30 6142 to previous 66-182-19-132 added NodeOldTownPizza - cp view
53 2005-10-13 21:02:05 6097 to previous dsl093-040-198 added NodeBackspace - cp view
52 2005-10-13 20:23:30 6055 to previous 72   view
51 2005-10-13 19:51:52 6011 to previous mail updated datestamps where relevant - cp view
50 2005-10-13 16:12:43 6011 to previous 64 added NodeOakTree removed NodeSouthParkBlocks - cp view
49 2005-10-13 15:51:54 6020 to previous 64 update date for NodeStumptownAsh - cp view
48 2005-10-11 08:47:49 6020 to previous mj added NodeSouthParkBlocks with uncertain status - cp view
47 2005-10-09 10:02:57 5969 to previous 67 added NodeFreshPot - cp view
46 2005-10-08 15:48:30 5928 to previous sub27-11   view
45 2005-10-05 09:04:20 5928 to previous host-230-0 added a thought - cp view
44 2005-10-03 19:20:43 5561 to previous 64 added pioneer square (-kq) view
43 2005-10-03 18:18:34 5515 to previous 64 de-crufting (-kq) view
42 2005-10-03 17:39:43 5655 to previous 64 added stumptown (-kq) view
41 2005-10-03 16:27:11 5610 to previous 64 changed category (-kq) view
40 2005-10-03 15:51:52 5601 to previous 64 added vivace (-kq) view
39 2005-10-03 15:21:00 5562 to previous 64 added hawthorne (-kq) view
38 2005-10-03 13:37:50 5520 to previous 64 added ecotrust (-kq) view
37 2005-10-03 12:04:45 5479 to previous 64 added crema (-kq) view
36 2005-10-02 12:31:08 5441 to previous 64 more (-kq) view
35 2005-10-02 10:47:18 5399 to previous 64 added BSSID and notes (-kq) view
34 2005-10-01 15:38:10 5047 to previous 70-59-151-175 updated NodeCostellos, added another status type - cp view
33 2005-10-01 12:36:49 4964 to previous 64 defined status or something - cp view
32 2005-10-01 12:22:14 4654 to previous 64 audited the UG (-kq) view
31 2005-09-30 15:26:50 4611 to previous 69 added BuffaloGap - cp view
30 2005-09-29 00:15:16 4568 to previous dude dittos open. view
29 2005-09-26 08:22:55 4578 to previous 64 another one (-kq) view
28 2005-09-26 08:20:55 4523 to previous 64 a quick note (-kq) view
27 2005-09-26 08:09:04 4213 to previous 64 consistency is good (-kq) view
26 2005-09-26 07:51:26 4099 to previous 64 status mistake. (-kq) view
25 2005-09-26 07:50:05 4089 to previous 64 another drop (-kq) view
24 2005-09-26 06:54:27 4047 to previous 64 another drop in the bucket (-kq) view
23 2005-09-25 19:54:32 4003 to previous sub27-11 Removed ISP from info list. Formatting changes. Added "methodology". view
22 2005-09-25 19:46:06 4040 to previous sub27-11   view
21 2005-09-24 13:40:56 3030 to previous 64 added crowbar, fixed hr, respond to caleb, pimp adhoc (-kq) view
20 2005-09-24 13:18:10 2686 to previous sub27-11 Responding to Keegans comments view
19 2005-09-24 13:13:30 2205 to previous sub27-11   view
18 2005-09-24 12:37:19 2178 to previous sub27-11   view